Weather History for Tehachapi, CA

Change the Weather History Date:

Friday, September 21, 2012

  Actual Average Record
Temperature  
Mean Temperature 68 °F -  
Max Temperature 86 °F 78 °F 86 °F (2011)
Min Temperature 50 °F 48 °F 48 °F (2013)
Cooling Degree Days 3    
Growing Degree Days 18 (Base 50)    
Moisture  
Dew Point 41 °F    
Average Humidity 42    
Maximum Humidity 72    
Minimum Humidity 12    
Precipitation  
Precipitation 0.00 in - - ()
Sea Level Pressure  
Sea Level Pressure 30.11 in    
Wind  
Wind Speed 5 mph (NNW)    
Max Wind Speed 17 mph    
Max Gust Speed 23 mph    
Visibility 9 miles    
Events      
Averages and records for this station are not official NWS values.
T = Trace of Precipitation, MM = Missing Value Source: NWS Daily Summary

Daily Weather History Graph

Daily Weather History Graph

Search for Another Location

Airport:

Trip Planner

Search our weather history database for the weather conditions in past years. The results will help you decide how hot, cold, wet, or windy it might be!

Date:

Astronomy

Sep. 21, 2012 Rise Set
Actual Time 6:41 AM PDT 6:51 PM PDT
Civil Twilight 6:16 AM PDT 7:16 PM PDT
Nautical Twilight 5:46 AM PDT 7:45 PM PDT
Astronomical Twilight 5:16 AM PDT 8:15 PM PDT
Moon 12:53 PM PDT (9/21) 11:10 PM PDT (9/21)
Length of Visible Light 13h 00m
Length of Day
12h 09m
Waxing Crescent, 38% of the Moon is Illuminated
Sep 21
Waxing Crescent
Sep 22
First Quarter
Sep 29
Full
Oct 8
Last Quarter
Oct 15
New

Hourly Weather History & Observations

Time (PDT) Temp. Dew Point Humidity Pressure Visibility Wind Dir Wind Speed Gust Speed Precip Events Conditions
12:15 AM 57.2 °F 46.4 °F 67% 30.15 in 8.0 mi SE 5.8 mph - N/A   Clear
12:35 AM 55.4 °F 44.6 °F 67% 30.15 in 8.0 mi Calm Calm - N/A   Clear
12:55 AM 55.4 °F 44.6 °F 67% 30.15 in 8.0 mi Calm Calm - N/A   Clear
1:15 AM 53.6 °F 44.6 °F 72% 30.15 in 8.0 mi Calm Calm - N/A   Clear
1:55 AM 53.6 °F 41.0 °F 62% 30.15 in 9.0 mi ESE 3.5 mph - N/A   Clear
2:15 AM 53.6 °F 42.8 °F 67% 30.15 in 9.0 mi East 3.5 mph - N/A   Clear
2:35 AM 53.6 °F 42.8 °F 67% 30.14 in 8.0 mi SE 3.5 mph - N/A   Clear
2:55 AM 53.6 °F 41.0 °F 62% 30.14 in 8.0 mi Calm Calm - N/A   Clear
3:15 AM 50.0 °F 41.0 °F 71% 30.13 in 9.0 mi ESE 3.5 mph - N/A   Clear
3:35 AM 53.6 °F 41.0 °F 62% 30.13 in 7.0 mi ENE 3.5 mph - N/A   Clear
3:55 AM 50.0 °F 41.0 °F 71% 30.13 in 8.0 mi ESE 3.5 mph - N/A   Clear
4:15 AM 53.6 °F 41.0 °F 62% 30.13 in 10.0 mi ESE 4.6 mph - N/A   Clear
4:35 AM 53.6 °F 41.0 °F 62% 30.12 in 10.0 mi East 3.5 mph - N/A   Clear
4:55 AM 53.6 °F 41.0 °F 62% 30.12 in 9.0 mi Calm Calm - N/A   Clear
5:15 AM 53.6 °F 41.0 °F 62% 30.12 in 9.0 mi ESE 3.5 mph - N/A   Clear
5:35 AM 53.6 °F 41.0 °F 62% 30.12 in 8.0 mi ESE 3.5 mph - N/A   Clear
5:55 AM 53.6 °F 39.2 °F 58% 30.13 in 10.0 mi SE 4.6 mph - N/A   Clear
6:15 AM 51.8 °F 39.2 °F 62% 30.13 in 10.0 mi East 3.5 mph - N/A   Clear
6:35 AM 50.0 °F 39.2 °F 66% 30.13 in 8.0 mi Calm Calm - N/A   Clear
6:55 AM 50.0 °F 39.2 °F 66% 30.13 in 7.0 mi Calm Calm - N/A   Clear
7:15 AM 51.8 °F 41.0 °F 67% 30.13 in 8.0 mi Calm Calm - N/A   Clear
7:35 AM 55.4 °F 39.2 °F 54% 30.14 in 8.0 mi Calm Calm - N/A   Clear
7:55 AM 57.2 °F 39.2 °F 51% 30.14 in 8.0 mi Calm Calm - N/A   Clear
8:15 AM 60.8 °F 41.0 °F 48% 30.13 in 8.0 mi East 3.5 mph - N/A   Clear
8:35 AM 64.4 °F 41.0 °F 42% 30.13 in 7.0 mi Calm Calm - N/A   Clear
8:55 AM 68.0 °F 39.2 °F 35% 30.13 in 7.0 mi SE 4.6 mph - N/A   Clear
9:15 AM 71.6 °F 39.2 °F 31% 30.13 in 9.0 mi Calm Calm - N/A   Clear
9:35 AM 75.2 °F 39.2 °F 27% 30.13 in 9.0 mi Calm Calm - N/A   Clear
9:55 AM 77.0 °F 37.4 °F 24% 30.13 in 9.0 mi SW 4.6 mph - N/A   Clear
10:15 AM 80.6 °F 37.4 °F 21% 30.13 in 9.0 mi Calm Calm - N/A   Clear
10:35 AM 84.2 °F 35.6 °F 18% 30.13 in 10.0 mi Calm Calm - N/A   Clear
10:55 AM 86.0 °F 33.8 °F 15% 30.13 in 10.0 mi South 10.4 mph 18.4 mph N/A   Clear
11:15 AM 84.2 °F 32.0 °F 15% 30.12 in 9.0 mi South 8.1 mph - N/A   Clear
11:35 AM 86.0 °F 26.6 °F 12% 30.12 in 9.0 mi SW 6.9 mph - N/A   Clear
11:55 AM 86.0 °F 33.8 °F 15% 30.12 in 10.0 mi NW 6.9 mph - N/A   Clear
12:15 PM 86.0 °F 35.6 °F 17% 30.11 in 10.0 mi NW 13.8 mph - N/A   Clear
12:35 PM 86.0 °F 33.8 °F 15% 30.11 in 10.0 mi NW 9.2 mph 16.1 mph N/A   Clear
12:55 PM 86.0 °F 35.6 °F 17% 30.10 in 10.0 mi WNW 11.5 mph - N/A   Clear
1:15 PM 86.0 °F 35.6 °F 17% 30.10 in 10.0 mi NW 15.0 mph - N/A   Clear
1:35 PM 84.2 °F 37.4 °F 19% 30.08 in 10.0 mi NW 13.8 mph - N/A   Clear
1:55 PM 86.0 °F 37.4 °F 18% 30.08 in 10.0 mi NW 15.0 mph - N/A   Clear
2:15 PM 84.2 °F 37.4 °F 19% 30.07 in 10.0 mi NW 16.1 mph - N/A   Clear
2:35 PM 84.2 °F 37.4 °F 19% 30.07 in 10.0 mi NW 17.3 mph 23.0 mph N/A   Clear
2:55 PM 84.2 °F 37.4 °F 19% 30.07 in 10.0 mi NW 15.0 mph 20.7 mph N/A   Clear
3:15 PM 82.4 °F 37.4 °F 20% 30.07 in 10.0 mi NW 17.3 mph - N/A   Clear
3:35 PM 82.4 °F 37.4 °F 20% 30.07 in 10.0 mi NW 16.1 mph 21.9 mph N/A   Clear
3:55 PM 82.4 °F 37.4 °F 20% 30.07 in 10.0 mi NW 16.1 mph 19.6 mph N/A   Clear
4:15 PM 84.2 °F 37.4 °F 19% 30.07 in 10.0 mi NW 16.1 mph 19.6 mph N/A   Clear
4:35 PM 82.4 °F 35.6 °F 19% 30.07 in 10.0 mi NW 13.8 mph - N/A   Clear
4:55 PM 82.4 °F 37.4 °F 20% 30.07 in 10.0 mi NW 13.8 mph 19.6 mph N/A   Clear
5:15 PM 80.6 °F 37.4 °F 21% 30.07 in 10.0 mi NW 15.0 mph 18.4 mph N/A   Clear
5:35 PM 80.6 °F 41.0 °F 24% 30.07 in 10.0 mi NW 11.5 mph - N/A   Clear
5:55 PM 77.0 °F 44.6 °F 32% 30.07 in 9.0 mi NW 12.7 mph - N/A   Clear
6:15 PM 75.2 °F 46.4 °F 36% 30.07 in 7.0 mi NW 11.5 mph - N/A   Clear
6:35 PM 73.4 °F 46.4 °F 38% 30.07 in 7.0 mi NW 9.2 mph - N/A   Clear
6:55 PM 71.6 °F 48.2 °F 43% 30.08 in 7.0 mi NW 10.4 mph - N/A   Clear
7:15 PM 69.8 °F 48.2 °F 46% 30.08 in 9.0 mi NNW 10.4 mph - N/A   Clear
7:35 PM 68.0 °F 48.2 °F 49% 30.08 in 8.0 mi NW 8.1 mph - N/A   Clear
7:55 PM 68.0 °F 48.2 °F 49% 30.09 in 8.0 mi WNW 6.9 mph - N/A   Clear
8:15 PM 66.2 °F 48.2 °F 52% 30.09 in 8.0 mi WSW 3.5 mph - N/A   Clear
8:35 PM 66.2 °F 48.2 °F 52% 30.09 in 8.0 mi Calm Calm - N/A   Clear
8:55 PM 66.2 °F 48.2 °F 52% 30.10 in 7.0 mi Calm Calm - N/A   Clear
9:15 PM 64.4 °F 48.2 °F 56% 30.10 in 7.0 mi Calm Calm - N/A   Clear
9:35 PM 64.4 °F 46.4 °F 52% 30.10 in 7.0 mi Calm Calm - N/A   Clear
9:55 PM 62.6 °F 46.4 °F 55% 30.11 in 8.0 mi Calm Calm - N/A   Clear
10:15 PM 64.4 °F 46.4 °F 52% 30.11 in 8.0 mi Calm Calm - N/A   Clear
10:35 PM 62.6 °F 44.6 °F 52% 30.11 in 10.0 mi North 4.6 mph - N/A   Clear
10:55 PM 64.4 °F 42.8 °F 45% 30.11 in 10.0 mi North 3.5 mph - N/A   Clear
11:15 PM 66.2 °F 41.0 °F 40% 30.11 in 10.0 mi North 4.6 mph - N/A   Clear
11:35 PM 64.4 °F 41.0 °F 42% 30.11 in 10.0 mi Calm Calm - N/A   Clear
11:55 PM 62.6 °F 41.0 °F 45% 30.11 in 10.0 mi NE 3.5 mph - N/A   Clear